CZ-6A DEB, 54560

Orbit data source: Space-Track

CZ-6A DEB, 54560 is space debris in SSO originally from a launch on Fri, 11 Nov 2022 UTC launched from the Taiyaun Space Center, China (TSC). Debris objects in space refer to the collection of defunct objects orbiting the Earth. Examples of debris include non-operational satellites, rocket bodies, and fragments generated from explosions, collisions, or faulty payload assembly.

Loading next visibility...
Identifier
54560, 2022-151LL
Orbit
SSO
Country
Flag of CNCN / PRC
Related business
Manufacturer
SAST
Mission
Spacecraft
Bus & Motor
Unknown
Mass
Unknown
Launch date (UTC)
2022-11-11 (4 years ago)
Launch vehicle
Unknown
Launch site
Taiyaun Space Center, China (TSC)
Object type
Payload
Rocket body
Debris
Shape & HBR
Unknown shape, 1.5 m
Radar Cross Section
Large (>1 m²)

Expand to show TLE details & history
Last TLE update: 2 days ago

TLE from 2 days ago
0 CZ-6A DEB
1 54560U 22151LL  26171.40856141  .00000290  00000-0  19192-3 0  9993
2 54560  98.8472 166.4633 0059518 357.9982   2.0940 14.08319926184900
Epoch: 2026-06-20T09:48Z
TLE epoch observation values (Epoch: 2026-06-20T09:48:19.705Z)
Latitude
-0.00011°
Longitude
110.7576°
Altitude
824.931 km
Speed
7.463 km/s
True Right ascension
11h 05m 51s
True Declination
0° 00' 00"
Sunlit
Object was in daylight at epoch
Visualization orbit readout
Latitude
Unknown
Longitude
Unknown
Altitude
Unknown
Speed
Unknown
Apparent Right ascension
Unknown
Apparent Declination
Unknown
Sunlit
N/A
Visualization observer readout
Local Sidereal Time
21:35:46
Azimuth
Unknown
Elevation
Unknown
Doppler factor
Unknown
Orbital elements
Apogee altitude
905.401 km
Perigee altitude
819.214 km
Semi-major axis
7,240.444 km
Eccentricity
0.00595
Inclination
98.8472°
RAAN
166.4633°
Arg. of periapsis
357.9982°
True anomaly
2.11911°
Mean anomaly
2.094°
Eccentric anomaly
2.10653°
Mean motion
3.52286 °/min
Orbital period
102.19 mins
BSTAR
0.00019192
Loading maneuver chart data...
Computing Atmospheric mass density...
Loading historical data...
Loading historical data...
Loading historical data...
Loading historical data...
Loading historical data...
Loading historical data...
Loading historical data...

Documentation

Showing up to 5 results
|